Regional Weather Roundup
Issued by NWS Memphis, TN

Home | Current Version | Previous Version | Text Only | Print | Product List | Glossary On
Versions: 1 2 3 4 5 6 7 8 9 10 11 12 13 14 15 16 17 18 19 20 21 22 23 24 25 26 27 28 29 30 31 32 33 34 35 36 37 38 39 40 41 42 43 44 45 46 47 48 49 50
000
ASUS44 KMEG 250710
RWRMEG
MEMPHIS CWA HOURLY WEATHER ROUNDUP
NATIONAL WEATHER SERVICE MEMPHIS TN
200 AM CDT FRI APR 25 2014

...WEST TENNESSEE...

CITY           SKY/WX    TMP DP  RH WIND       PRES   REMARKS
MEMPHIS INTL   MOCLDY    62  56  80 W9        29.78R
NWS MEMPHIS      N/A     62 N/A N/A MISG        N/A
JACKSON        CLOUDY    65  61  87 SW13      29.71F
LEXINGTON      CLOUDY    64  61  88 SW12      29.71S
SAVANNAH       CLOUDY    64  64 100 SW7       29.73
DYERSBURG      CLOUDY    63  52  67 W13       29.73R
UNION CITY     MOCLDY    61  57  88 SW7       29.68S
PARIS          MOCLDY    62  60  93 SW14      29.68F


...EASTERN ARKANSAS...

CITY           SKY/WX    TMP DP  RH WIND       PRES   REMARKS
JONESBORO      CLOUDY    61  54  77 W15       29.77R
WEST MEMPHIS   CLOUDY    62  58  86 W7        29.78R
BATESVILLE     MOCLDY    59  50  72 W9        29.80R
NEWPORT        CLOUDY    60  53  77 NW9       29.81R
WALNUT RIDGE   MOCLDY    61  54  77 NW15      29.76S
BLYTHEVILLE    MOCLDY    62  57  83 NW16G29   29.74R
SEARCY         PTCLDY    59  53  80 W3        29.84R
STUTTGART      PTCLDY    61  54  77 W9        29.84F
PINE BLUFF     CLEAR     59  52  77 SW7       29.87S
MONTICELLO     CLEAR     60  52  74 W8        29.87S


...NORTH MISSISSIPPI...

CITY           SKY/WX    TMP DP  RH WIND       PRES   REMARKS
TUPELO         MOCLDY    67  62  84 W13G22    29.77F
OXFORD         PTCLDY    59  55  88 W8        29.82S
OLIVE BRANCH   PTCLDY    59  59 100 W9        29.78S
TUNICA         PTCLDY    61  55  82 W12       29.82S
CLARKSDALE       N/A     61  59  94 W12       29.84R
CORINTH        CLOUDY    64  63  94 SW13G18   29.74S
GRENADA        PTCLDY    61  55  82 W6        29.84S
GREENWOOD      CLEAR     63  58  83 VRB3      29.85F
COLUMBUS       CLOUDY    66  65  96 S10       29.82S
STARKVILLE     CLOUDY    63  63 100 SW6       29.83F
GOLDEN TRIANGL CLOUDY    64  61  88 SW8       29.86R


...SOUTHEAST MISSOURI...

CITY           SKY/WX    TMP DP  RH WIND       PRES   REMARKS
DONIPHAN         N/A     57  55  92 W6          N/A
WEST PLAINS    PTCLDY    53  46  77 NW16G28   29.83R
POPLAR BLUFF   PTCLDY    58  52  80 W8        29.73R
CAPE GIRARDEAU MOCLDY    58  56  93 W8        29.70R


...NORTHWEST ALABAMA...

CITY           SKY/WX    TMP DP  RH WIND       PRES   REMARKS
MUSCLE SHOALS  CLOUDY    67  61  81 S10       29.76F


...MIDDLE TENNESSEE...

CITY           SKY/WX    TMP DP  RH WIND       PRES   REMARKS
NASHVILLE      CLOUDY    62  60  93 S12       29.70F
CLARKSVILLE    LGT RAIN  63  60  90 S10G18    29.68F
DICKSON        MOCLDY    61  61 100 S8        29.70F
COLUMBIA       CLOUDY    64  64 100 SW6       29.72F
LEWISBURG      CLOUDY    61  60  96 SE5       29.74F


...WESTERN KENTUCKY...

CITY           SKY/WX    TMP DP  RH WIND       PRES   REMARKS
PADUCAH        CLOUDY    60  55  83 W9        29.67F
FORT CAMPBELL  CLOUDY    63  63 100 S12       29.67F


...CENTRAL ARKANSAS...

CITY           SKY/WX    TMP DP  RH WIND       PRES   REMARKS
LITTLE ROCK    PTCLDY    60  49  66 NW8       29.85S


SKY/WX REPORTED AS FAIR MEANS FEW OR NO CLOUDS BELOW
12 THOUSAND FEET.




USA.gov is the U.S. government's official web portal to all federal, state and local government web resources and services.